| time (UTC) | temp F | wind direction | speed MPH | gust MPH | rain 1hr in | rain 24hr in | rain mn in | humidity % | barometer mb |
| 20260509074526 | 56 | 112 | 2.0 | 12.0 | 0.00 | 0.74 | 0.00 | 84 | 997.0 |
| 20260509073010 | 57 | 82 | 2.0 | 8.0 | 0.00 | 0.77 | 0.00 | 84 | 996.8 |
| 20260509071515 | 57 | 345 | 3.0 | 11.0 | 0.00 | 0.77 | 0.00 | 84 | 996.8 |
| 20260509070022 | 57 | 220 | 2.0 | 10.0 | 0.00 | 0.81 | 0.00 | 84 | 996.9 |
| 20260509064523 | 57 | 44 | 2.0 | 8.0 | 0.00 | 0.90 | 0.00 | 86 | 996.9 |
| 20260509063034 | 57 | 158 | 2.0 | 13.0 | 0.00 | 0.97 | 0.00 | 87 | 996.9 |
| 20260509061514 | 57 | 91 | 3.0 | 10.0 | 0.00 | 0.99 | 0.00 | 88 | 996.7 |
| 20260509060016 | 56 | 214 | 2.0 | 8.0 | 0.00 | 1.00 | 0.00 | 89 | 996.6 |
| 20260509054523 | 56 | 230 | 1.0 | 6.0 | 0.00 | 1.03 | 0.00 | 88 | 996.7 |
| 20260509053024 | 57 | 114 | 1.0 | 4.0 | 0.00 | 1.05 | 0.00 | 88 | 997.0 |
| 20260509051528 | 57 | 233 | 1.0 | 9.0 | 0.00 | 1.05 | 0.00 | 88 | 996.9 |
| 20260509050022 | 57 | 79 | 0.0 | 8.0 | 0.00 | 1.05 | 0.00 | 88 | 996.7 |
| 20260509044520 | 58 | 250 | 1.0 | 7.0 | 0.00 | 1.05 | 0.00 | 87 | 996.8 |
| 20260509043025 | 58 | 236 | 2.0 | 11.0 | 0.00 | 1.05 | 0.00 | 87 | 996.8 |
| 20260509041524 | 58 | 93 | 2.0 | 11.0 | 0.00 | 1.05 | 0.00 | 86 | 997.0 |
| 20260509040035 | 59 | 36 | 2.0 | 8.0 | 0.00 | 1.05 | 0.00 | 86 | 997.0 |
| 20260509034512 | 59 | 47 | 2.0 | 7.0 | 0.00 | 1.05 | 0.00 | 87 | 996.8 |
| 20260509033018 | 59 | 316 | 3.0 | 9.0 | 0.00 | 1.06 | 0.00 | 87 | 996.7 |
| 20260509031529 | 60 | 1 | 1.0 | 7.0 | 0.00 | 1.06 | 0.00 | 87 | 996.5 |
| 20260509030026 | 60 | 124 | 1.0 | 5.0 | 0.00 | 1.06 | 0.00 | 87 | 996.6 |
| 20260509024528 | 60 | 240 | 1.0 | 15.0 | 0.00 | 1.06 | 0.00 | 87 | 996.7 |
| 20260509023016 | 60 | 233 | 1.0 | 11.0 | 0.00 | 1.06 | 0.00 | 88 | 996.8 |
| 20260509021522 | 60 | 352 | 3.0 | 8.0 | 0.00 | 1.06 | 0.00 | 88 | 996.6 |
| 20260509020023 | 60 | 77 | 2.0 | 10.0 | 0.00 | 1.06 | 0.00 | 87 | 996.8 |
| 20260509014537 | 60 | 288 | 1.0 | 13.0 | 0.00 | 1.06 | 0.00 | 87 | 996.9 |
| 20260509013028 | 60 | 6 | 1.0 | 13.0 | 0.00 | 1.06 | 0.00 | 87 | 996.9 |
| 20260509011520 | 60 | 18 | 2.0 | 15.0 | 0.00 | 1.06 | 0.00 | 87 | 996.5 |
| 20260509010027 | 60 | 253 | 4.0 | 14.0 | 0.00 | 1.06 | 0.00 | 87 | 996.7 |
| 20260509004527 | 60 | 236 | 4.0 | 17.0 | 0.00 | 1.06 | 0.00 | 88 | 996.8 |
| 20260509003028 | 60 | 158 | 3.0 | 12.0 | 0.00 | 1.06 | 0.00 | 89 | 996.4 |
| 20260509001531 | 60 | 243 | 3.0 | 13.0 | 0.00 | 1.06 | 0.00 | 89 | 996.9 |
| 20260509000022 | 60 | 32 | 2.0 | 11.0 | 0.00 | 1.06 | 0.00 | 90 | 997.4 |
| 20260508234504 | 60 | 266 | 4.0 | 13.0 | 0.00 | 1.06 | 0.00 | 91 | 997.3 |
| 20260508233008 | 60 | 233 | 3.0 | 15.0 | 0.00 | 1.06 | 0.00 | 91 | 997.1 |
| 20260508231512 | 59 | 331 | 3.0 | 17.0 | 0.00 | 1.06 | 0.00 | 91 | 997.2 |
| 20260508230018 | 60 | 88 | 3.0 | 11.0 | 0.00 | 1.06 | 0.00 | 90 | 997.4 |
| 20260508224524 | 60 | 250 | 5.0 | 13.0 | 0.00 | 1.06 | 0.00 | 90 | 997.2 |
| 20260508223009 | 60 | 219 | 3.0 | 11.0 | 0.00 | 1.06 | 0.00 | 90 | 997.6 |
| 20260508221510 | 60 | 203 | 4.0 | 17.0 | 0.00 | 1.06 | 0.00 | 89 | 997.5 |
| 20260508220050 | 60 | 30 | 5.0 | 14.0 | 0.00 | 1.06 | 0.00 | 89 | 997.5 |
| 20260508214521 | 60 | 111 | 3.0 | 15.0 | 0.00 | 1.06 | 0.00 | 89 | 997.7 |
| 20260508213026 | 60 | 51 | 3.0 | 19.0 | 0.00 | 1.06 | 0.00 | 88 | 998.1 |
| 20260508211505 | 59 | 265 | 4.0 | 13.0 | 0.00 | 1.06 | 0.00 | 89 | 998.1 |
| 20260508210015 | 59 | 226 | 2.0 | 15.0 | 0.00 | 1.06 | 0.00 | 89 | 997.9 |
| 20260508204521 | 59 | 305 | 4.0 | 15.0 | 0.00 | 1.07 | 0.00 | 89 | 997.6 |
| 20260508203024 | 59 | 189 | 5.0 | 12.0 | 0.00 | 1.07 | 0.00 | 90 | 997.3 |
| 20260508201532 | 59 | 73 | 5.0 | 13.0 | 0.00 | 1.09 | 0.00 | 87 | 997.9 |
| 20260508200009 | 59 | 30 | 4.0 | 17.0 | 0.00 | 1.10 | 0.00 | 86 | 997.2 |
| 20260508194515 | 59 | 238 | 5.0 | 19.0 | 0.00 | 1.13 | 0.00 | 86 | 996.2 |
| 20260508193026 | 59 | 309 | 4.0 | 15.0 | 0.00 | 1.16 | 0.00 | 90 | 995.5 |
| 20260508191525 | 59 | 342 | 3.0 | 27.0 | 0.00 | 1.16 | 0.00 | 88 | 995.8 |
| 20260508190033 | 59 | 227 | 4.0 | 18.0 | 0.00 | 1.16 | 0.00 | 88 | 996.2 |
| 20260508184520 | 59 | 158 | 6.0 | 23.0 | 0.00 | 1.16 | 0.00 | 88 | 996.2 |
| 20260508183018 | 59 | 212 | 7.0 | 19.0 | 0.00 | 1.16 | 0.00 | 89 | 996.7 |
| 20260508181532 | 59 | 58 | 5.0 | 14.0 | 0.00 | 1.16 | 0.00 | 89 | 996.6 |
| 20260508180026 | 59 | 310 | 7.0 | 17.0 | 0.00 | 1.16 | 0.00 | 89 | 996.5 |
| 20260508174534 | 60 | 226 | 5.0 | 17.0 | 0.00 | 1.16 | 0.00 | 91 | 996.2 |
| 20260508173017 | 60 | 298 | 6.0 | 13.0 | 0.00 | 1.16 | 0.00 | 92 | 996.6 |
| 20260508171521 | 59 | 274 | 4.0 | 19.0 | 0.00 | 1.16 | 0.00 | 92 | 996.6 |
| 20260508170022 | 60 | 327 | 3.0 | 17.0 | 0.00 | 1.16 | 0.00 | 92 | 997.2 |
| 20260508164526 | 60 | 301 | 5.0 | 17.0 | 0.00 | 1.16 | 0.00 | 92 | 997.0 |
| 20260508163035 | 59 | 245 | 4.0 | 20.0 | 0.00 | 1.16 | 0.00 | 93 | 997.1 |
| 20260508161526 | 59 | 220 | 6.0 | 16.0 | 0.00 | 1.16 | 0.00 | 94 | 997.0 |
| 20260508160020 | 59 | 58 | 4.0 | 17.0 | 0.00 | 1.16 | 0.00 | 94 | 997.4 |
| 20260508154524 | 59 | 268 | 6.0 | 21.0 | 0.00 | 1.16 | 0.00 | 94 | 997.8 |
| 20260508153028 | 59 | 301 | 5.0 | 21.0 | 0.00 | 1.16 | 0.00 | 94 | 998.0 |
| 20260508151516 | 59 | 143 | 5.0 | 14.0 | 0.00 | 1.16 | 0.00 | 94 | 997.9 |
| 20260508150025 | 59 | 319 | 4.0 | 12.0 | 0.00 | 1.16 | 0.00 | 94 | 997.9 |
| 20260508144526 | 59 | 64 | 4.0 | 14.0 | 0.00 | 1.16 | 0.00 | 94 | 997.9 |
| 20260508143027 | 59 | 230 | 5.0 | 16.0 | 0.00 | 1.16 | 0.00 | 95 | 997.9 |
| 20260508141526 | 59 | 82 | 3.0 | 16.0 | 0.00 | 1.16 | 0.00 | 95 | 998.3 |
| 20260508140016 | 59 | 231 | 3.0 | 14.0 | 0.00 | 1.16 | 0.00 | 94 | 998.3 |
| 20260508134509 | 59 | 258 | 5.0 | 14.0 | 0.00 | 1.16 | 0.00 | 94 | 998.5 |
| 20260508133008 | 59 | 147 | 4.0 | 15.0 | 0.00 | 1.16 | 0.00 | 94 | 998.8 |
| 20260508131510 | 59 | 187 | 6.0 | 20.0 | 0.00 | 1.16 | 0.00 | 93 | 998.4 |
| 20260508130008 | 59 | 96 | 5.0 | 21.0 | 0.00 | 1.16 | 0.00 | 93 | 998.5 |
| 20260508124511 | 59 | 211 | 6.0 | 22.0 | 0.00 | 1.16 | 0.00 | 93 | 998.8 |
| 20260508123008 | 59 | 246 | 7.0 | 21.0 | 0.00 | 1.16 | 0.00 | 94 | 998.3 |
| 20260508121509 | 59 | 211 | 6.0 | 18.0 | 0.00 | 1.16 | 0.00 | 96 | 998.4 |
| 20260508120011 | 58 | 237 | 5.0 | 12.0 | 0.00 | 1.16 | 0.00 | 97 | 998.7 |
| 20260508114510 | 58 | 293 | 5.0 | 15.0 | 0.00 | 1.16 | 1.16 | 97 | 998.5 |
| 20260508113014 | 58 | 75 | 3.0 | 15.0 | 0.00 | 1.16 | 1.16 | 98 | 998.6 |
| 20260508111507 | 58 | 281 | 4.0 | 8.0 | 0.00 | 1.16 | 1.16 | 98 | 998.8 |
| 20260508110015 | 58 | 214 | 2.0 | 14.0 | 0.00 | 1.16 | 1.16 | 98 | 998.7 |
| 20260508104512 | 58 | 316 | 4.0 | 11.0 | 0.00 | 1.16 | 1.16 | 98 | 999.1 |
| 20260508103012 | 58 | 195 | 4.0 | 20.0 | 0.00 | 1.16 | 1.16 | 98 | 999.2 |
| 20260508101510 | 57 | 214 | 3.0 | 19.0 | 0.02 | 1.16 | 1.16 | 98 | 999.9 |
| 20260508100005 | 56 | 298 | 3.0 | 11.0 | 0.09 | 1.16 | 1.16 | 98 | 1000.1 |
| 20260508094510 | 55 | 252 | 2.0 | 8.0 | 0.37 | 1.16 | 1.16 | 97 | 999.8 |
| 20260508093012 | 55 | 266 | 6.0 | 14.0 | 0.57 | 1.16 | 1.16 | 97 | 1000.0 |
| 20260508091514 | 55 | 274 | 2.0 | 15.0 | 0.66 | 1.14 | 1.14 | 96 | 1000.5 |
| 20260508090017 | 58 | 319 | 5.0 | 15.0 | 0.65 | 1.07 | 1.07 | 95 | 1000.7 |
| 20260508084506 | 59 | 294 | 4.0 | 28.0 | 0.37 | 0.78 | 0.78 | 96 | 1000.0 |
| 20260508083014 | 59 | 257 | 5.0 | 14.0 | 0.19 | 0.59 | 0.59 | 96 | 1000.2 |
| 20260508081539 | 59 | 59 | 2.0 | 11.0 | 0.09 | 0.51 | 0.48 | 95 | 999.7 |
| 20260508080014 | 59 | 311 | 3.0 | 10.0 | 0.07 | 0.46 | 0.41 | 95 | 1000.1 |